SBIRS GEO-5 (USA 315)

Last updated on Sun Aug 31 2025 00:02:50 GMT+0000 (Coordinated Universal Time)

1 48618U 21042A 25241.86280738 -.00000264 00000+0 00000+0 0 9993 2 48618 5.4933 327.1591 0006093 193.9168 222.0532 1.00275294 15851
UTC large
Height (km)
Speed (km/s)
/
Latitude / Longitude
Inclination (degrees)
Orbital Period (minutes)
Azimuth
Elevation
Range (km)
Doppler Factor

Next 0 passes for location: London (51.5072 / 0.1276)

Sorry there are no passes over London.